sat.trackr.live / text

‹ back to catalog

STARLINK-35314

NORAD 65837 · 2025-221Q

PAYLOAD ACTIVE UNKNOWN

§ Identity

Operator
Country
US
Launch date
2025-09-29
Launch site
AFWTR
Launch vehicle
Mass (kg)
RCS (m²)

Purposes: comms

External: N2YO · Heavens-Above · Gunter

§ Orbital elements

Epoch: 2026-05-25T03:39:11.287008Z

Period
93.85 min
Inclination
53.1576°
Eccentricity
0.0000994
Mean motion
15.34405123 rev/d
Perigee alt
462.0 km
Apogee alt
463.4 km
Semi-major
6,840.8 km
B*
4.3892e-4
RAAN
92.9304°
Arg perigee
63.3050°
Mean anomaly
296.8054°
Rev number
3,644

§ Raw data

STARLINK-353141 65837U 25221Q   26145.15221397  .00014485  00000+0  43892-3 0  99992 65837  53.1576  92.9304 0000994  63.3050 296.8054 15.34405123 36443

JSON: /api/v1/satellites/65837 · /tle

For live sub-satellite position, see the globe view (requires WebGL).

§ Visibility from observer

Set your observer location to see the next 7 days of passes ≥ 10°. The values pass through the URL so the page stays shareable.

No JS? Fill the form by hand. The geolocation button needs JavaScript.